Regional Weather Roundup
Issued by NWS

Home | Current Version | Previous Version | Graphics & Text | Print | Product List | Glossary On
Versions: 1 2 3 4 5 6 7 8 9 10 11 12 13 14 15 16 17 18 19 20 21 22 23 24 25 26 27 28 29 30 31 32 33 34 35 36 37 38 39 40 41 42 43 44 45 46 47 48 49 50
000
ASUS43 KMKX 310821
RWRWI

WISCONSIN REGIONAL WEATHER ROUNDUP
NATIONAL WEATHER SERVICE MILWAUKEE/SULLIVAN WI
300 AM CDT MON AUG 31 2015

NOTE: "FAIR" INDICATES FEW OR NO CLOUDS BELOW 12,000 FEET WITH NO
SIGNIFICANT WEATHER AND/OR OBSTRUCTIONS TO VISIBILITY.

WIZ001-002-006>008-014>016-023>028-310900-
NORTHWEST WISCONSIN

CITY           SKY/WX    TMP DP  RH WIND       PRES   REMARKS
SUPERIOR ARPT  CLOUDY    65  65  97 CALM      29.88S
ASHLAND        PTCLDY    65  65 100 S7        29.92R
HAYWARD        MOCLDY    64  62  93 S8        29.96R
SIREN          PTCLDY    65  64  94 S3        29.93S
CUMBERLAND     CLOUDY    59  59 100 S5        29.96S FOG
RICE LAKE      MOCLDY    61  60  95 SE5       29.98S FOG
CHETEK         PTCLDY   N/A N/A N/A E5        29.98S
LADYSMITH      FOG       64  63  96 S5        30.01R VSB 1
EAU CLAIRE     CLEAR     62  60  93 S5        29.97S
MENOMONIE      FOG       60  59  99 SE5       29.98S VSB 1/4
NEW RICHMOND   CLEAR     63  62  99 S5        29.96R
OSCEOLA        PTCLDY    63  63 100 SE6       29.96S
$$

WIZ003>005-009-010-017-018-310900-
NORTH CENTRAL WISCONSIN

CITY           SKY/WX    TMP DP  RH WIND       PRES   REMARKS
MANITOWISH WTR CLOUDY    64  64 100 SW8       29.99R
ARBOR VITAE    CLOUDY    64  63  97 SW5       30.00R FOG
WOODRUFF       CLOUDY    64  63  97 SW5       30.00R FOG
RHINELANDER    FOG       63  62  97 SW6       30.02R VSB 1
EAGLE RIVER    CLOUDY    64  63  98 SW7       30.00R
LAND O LAKES   CLOUDY    64  64  97 SW5       30.00R
PHILLIPS       CLOUDY    64  63  99 SW7       29.99S
TOMAHAWK       CLOUDY    63  62  97 W3        30.02R FOG
MEDFORD        FOG       61  61 100 SW5       30.02R VSB 1/4
MERRILL        CLOUDY    62  62 100 SW3       30.02S FOG
$$

WIZ029-030-035-036-043>047-310900-
CENTRAL WISCONSIN

CITY           SKY/WX    TMP DP  RH WIND       PRES   REMARKS
WAUSAU         CLEAR     64  62  93 SW10      30.00S
MOSINEE        FOG       57  57 100 SW3       30.02S VSB 1/4
MARSHFIELD     FOG       61  58  90 SW3       30.01S VSB 1/4
STEVENS POINT  FOG       57  57  99 CALM      30.02S VSB 1/4
WAUPACA        FOG       59  58  97 CALM      30.02R VSB 1/4
WAUTOMA        FOG       60  60 100 CALM      30.02S VSB 1/4
WISC RAPIDS    CLEAR     61  59  93 SW3       30.03R FOG
CAMP DOUGLAS   FOG       54  54 100 SE2       30.01S VSB 1/4
$$

WIZ011>013-019>022-031-037>040-048>050-310900-
NORTHEAST WISCONSIN

CITY           SKY/WX    TMP DP  RH WIND       PRES   REMARKS
ANTIGO         FOG       61  61 100 W6        30.02S VSB 3/4
SHAWANO        CLEAR     64  62  95 CALM      30.00R
OCONTO         CLEAR     60  60 100 SW3       29.98S
STURGEON BAY   CLEAR     64  61  88 SW6       30.01S
GREEN BAY      CLEAR     63  61  93 SW5       30.00S FOG
MANITOWOC      CLEAR     57  57 100 MISG      30.01S FOG
APPLETON       CLEAR     61  61 100 SW7       30.01R
CLINTONVILLE   PTCLDY    61  59  94 SW3       30.01R FOG
OSHKOSH        CLEAR     62  60  93 SW3       30.01R
$$

WIZ032>034-041-042-053>061-310900-
SOUTHWEST WISCONSIN

CITY           SKY/WX    TMP DP  RH WIND       PRES   REMARKS
LA CROSSE      MOCLDY    63  63 100 S6        29.99F FOG
SPARTA         PTCLDY    55  53  95 CALM      30.02S
VIROQUA          N/A     60  60 100 CALM      30.03R VSB 1/2
BOSCOBEL       FOG       59  58  96 CALM      30.02S VSB 1/4
PRAIRIE DU CHI CLOUDY    60  59  96 CALM      30.01S FOG
PLATTEVILLE    CLEAR     61  61 100 S3        30.03S
$$

WIZ056-057-062-063-064-067-068-310900-
SOUTH CENTRAL WISCONSIN

CITY           SKY/WX    TMP DP  RH WIND       PRES   REMARKS
REEDSBURG      CLEAR     60  60 100 CALM      30.02S FOG
BARABOO/DELLS  FOG       60  58  95 CALM      30.02S VSB 1/2
LONE ROCK      FOG       58  57  97 CALM      30.03S VSB 1/4
MINERAL POINT  CLEAR     63  63 100 S5        30.04S FOG
MADISON        FOG       60  59  96 CALM      30.03R VSB 1/4
MIDDLETON      CLOUDY    57  57 100 CALM      30.03S VSB 1/4
WATERTOWN      FOG       56  56 100 CALM      30.03R VSB 3/4
MONROE         CLEAR     61  61 100 SW7       30.04R FOG
JANESVILLE     FOG       59  55  88 CALM      30.03R VSB 1/4
$$

WIZ051-052-058>065-066-070>072-310900-
SOUTHEAST WISCONSIN

CITY           SKY/WX    TMP DP  RH WIND       PRES   REMARKS
MILWAUKEE      CLEAR     61  60  97 SW6       30.03R FOG
WAUKESHA       CLEAR     59  59 100 CALM      30.04S FOG
MILWAUKEE/TIMM CLEAR     59  55  88 CALM      30.03S FOG
RACINE         CLEAR     61  59  93 SW3       30.05R FOG
BURLINGTON     FOG       55  55  99 CALM      30.03S VSB 1/2
KENOSHA        FOG       59  58  96 S3        30.04R VSB 1/4
FOND DU LAC    CLEAR     61  60  97 CALM      30.02R FOG
SHEBOYGAN      CLEAR     58  58 100 SW5       30.01S FOG
WEST BEND      PTCLDY    57  55  94 CALM      30.03R FOG
JUNEAU         FOG       58  58  99 CALM      30.04R VSB<1/4
$$

LSZ147-162-310900-
LAKE SUPERIOR

STATION/POSITION TIME  TEMP    WIND        PRES    WAVE
                       AIR SEA DIR/SP/G            HT/PER
                 (UTC) (F)     (DEG/KT/KT) (MB)    (FT/S)
W MID LAKE BUOY  0750   60 54  210/ 10/ 12 1011.9F   1
DEVILS ISLAND    0800   67     190/  6/  8 1011.8F
PORT WING        0740   67     190/  5/  7 1012.2F
SAXON HARBOR     0700   68      CALM  /  7 1012.2
$$

LMZ867-665-643>646-310900-
LAKE MICHIGAN

STATION/POSITION TIME  TEMP    WIND        PRES    WAVE
                       AIR SEA DIR/SP/G            HT/PER
                 (UTC) (F)     (DEG/KT/KT) (MB)    (FT/S)
CHAMBERS ISLAND  0700   64     180/  7/ 11 1014.9S
S GREEN BAY BUOY 0600   65 63  200/  8/ 10 1016.6
N MID LAKE BUOY  0750   64 65  220/ 14/ 17 1014.3S   3/ 5
NORTHPORT PIER   0802   63     250/  3/  6 1014.6S
SHEBOYGAN LAKESH 0800   59     180/  7/  8 1016.6R
PORT WASHINGTON  0700   55      CALM  /  1 1016.9F
ATWATER BUOY     0800   53 50  180/  4/  6 1017.9S
MILWAUKEE LAKESH 0700   64     200/  5/  6   N/A
S MID LAKE BUOY  0750   68 68  190/  6/  6 1016.7R   0
KENOSHA   LAKESH 0800   64     210/  4/  7 1016.6S
$$

TC  - TEMPERATURE IN CELSIUS
VSB - VISIBILITY IN STATUTE MILES
WCI - WIND CHILL INDEX
HX  - HEAT INDEX




USA.gov is the U.S. government's official web portal to all federal, state and local government web resources and services.